Location: Seattle
(47.6064°N, 122.3308°W)
Time: 14:32:51
(UTC-08:00)

SR - Pass Details

Date: 02 December 2020
Orbit: 575 x 880 km, 66.7° (Epoch: 23 January)

Event Time Altitude Azimuth Distance (km) Brightness Sun altitude
Rises 19:02:40 0° 249° (WSW) 2,845 ? -26.7°
Reaches altitude 10° 19:05:09 10° 262° (W) 1,979 ? -27.1°
Maximum altitude 19:08:56 27° 320° (NW) 1,255 ? -27.7°
Enters shadow 19:09:54 25° 341° (NNW) 1,331 ? -27.9°
